FW2422 Weather Reports


Display with metric or nautical units.
time (UTC)temp
F
wind
direction
speed
MPH
gust
MPH
rain 1hr
in
rain 24hr
in
rain mn
in
humidity
%
barometer
mb
20260905044545 87 225 1.0 4.0 0.00 0.00 0.00 60 1012.4
20260905043044 87 172 1.0 6.0 0.00 0.00 0.00 60 1012.4
20260905041544 87 206 1.0 6.0 0.00 0.00 0.00 59 1012.4
20260905040043 88 108 0.0 4.0 0.00 0.00 0.00 59 1012.5
20260905034543 88 171 1.0 5.0 0.00 0.00 0.00 58 1012.5
20260905033046 88 202 2.0 5.0 0.00 0.00 0.00 57 1012.5
20260905031550 89 155 0.0 3.0 0.00 0.00 0.00 55 1012.5
20260905030043 89 142 0.0 1.0 0.00 0.00 0.00 54 1012.4
20260905024541 90 160 0.0 4.0 0.00 0.00 0.00 53 1012.3
20260905023038 90 170 0.0 2.0 0.00 0.00 0.00 53 1012.1
20260905021537 90 79 1.0 4.0 0.00 0.00 0.00 52 1011.8
20260905020036 91 174 0.0 5.0 0.00 0.00 0.00 52 1011.6
20260905014536 91 93 0.0 5.0 0.00 0.00 0.00 51 1011.4
20260905013036 92 124 0.0 4.0 0.00 0.00 0.00 50 1011.3
20260905011542 92 176 1.0 5.0 0.00 0.00 0.00 49 1011.2
20260905010035 93 154 2.0 6.0 0.00 0.00 0.00 47 1010.9
20260905004534 94 179 2.0 7.0 0.00 0.00 0.00 46 1010.9
20260905003033 94 153 2.0 6.0 0.00 0.00 0.00 45 1010.8
20260905001536 96 120 3.0 7.0 0.00 0.00 0.00 43 1010.7
20260905000044 96 103 2.0 6.0 0.00 0.00 0.00 42 1010.6
20260904234537 97 110 1.0 6.0 0.00 0.00 0.00 41 1010.5
20260904233031 97 105 1.0 8.0 0.00 0.00 0.00 41 1010.5
20260904231529 97 62 2.0 6.0 0.00 0.00 0.00 41 1010.4
20260904230049 97 146 3.0 8.0 0.00 0.00 0.00 43 1010.6
20260904224528 95 234 1.0 10.0 0.00 0.00 0.00 45 1010.6
20260904223027 96 72 1.0 5.0 0.00 0.00 0.00 44 1010.7
20260904221526 97 129 3.0 7.0 0.00 0.00 0.00 43 1010.7
20260904220026 97 72 3.0 6.0 0.00 0.00 0.00 44 1010.8
20260904214524 98 193 3.0 11.0 0.00 0.00 0.00 43 1010.9
20260904213023 99 237 3.0 7.0 0.00 0.00 0.00 42 1011.0
20260904211521 99 115 3.0 7.0 0.00 0.00 0.00 41 1011.1
20260904210025 99 146 1.0 9.0 0.00 0.00 0.00 41 1011.2
20260904204514 98 179 3.0 6.0 0.00 0.00 0.00 42 1011.3
20260904203016 98 207 2.0 8.0 0.00 0.00 0.00 42 1011.6
20260904201510 96 82 1.0 7.0 0.00 0.00 0.00 43 1011.8
20260904200027 97 106 4.0 10.0 0.00 0.00 0.00 43 1012.1
20260904194507 98 70 4.0 9.0 0.00 0.00 0.00 42 1012.3
20260904184602 97 133 4.0 9.0 0.00 0.00 0.00 46 1012.8
20260904183040 96 118 1.0 8.0 0.00 0.00 0.00 45 1013.1
20260904181534 96 172 1.0 7.0 0.00 0.00 0.00 48 1013.3
20260904180030 96 155 0.0 5.0 0.00 0.00 0.00 48 1013.6
20260904174557 95 99 2.0 8.0 0.00 0.00 0.00 47 1013.9
20260904173025 94 103 0.0 7.0 0.00 0.00 0.00 47 1014.1
20260904171522 94 242 2.0 6.0 0.00 0.00 0.00 50 1014.3
20260904170037 93 129 2.0 10.0 0.00 0.00 0.00 51 1014.4
20260904164518 92 67 2.0 8.0 0.00 0.00 0.00 54 1014.3
20260904163016 92 131 0.0 5.0 0.00 0.00 0.00 57 1014.4
20260904161517 91 143 1.0 5.0 0.00 0.00 0.00 59 1014.3
20260904160011 90 261 1.0 8.0 0.00 0.00 0.00 61 1014.5
20260904154509 89 258 1.0 5.0 0.00 0.00 0.00 63 1014.5
20260904143102 85 233 0.0 7.0 0.00 0.00 0.00 76 1014.3
20260904141557 84 216 3.0 8.0 0.00 0.00 0.00 79 1014.3
20260904140053 83 196 3.0 6.0 0.00 0.00 0.00 81 1014.3
20260904134549 81 223 1.0 6.0 0.00 0.00 0.00 84 1014.1
20260904123021 76 219 0.0 4.0 0.00 0.00 0.00 91 1013.6
20260904121520 76 93 0.0 2.0 0.00 0.00 0.00 91 1013.5
20260904120023 76 78 0.0 3.0 0.00 0.00 0.00 91 1013.5
20260904114517 76 172 0.0 5.0 0.00 0.00 0.00 90 1013.3
20260904113017 76 114 0.0 4.0 0.00 0.00 0.00 90 1013.2
20260904111513 76 186 0.0 4.0 0.00 0.00 0.00 89 1013.0
20260904110012 76 248 0.0 5.0 0.00 0.00 0.00 88 1013.1
20260904104520 76 98 1.0 3.0 0.00 0.00 0.00 88 1013.0
20260904103009 76 189 0.0 3.0 0.00 0.00 0.00 87 1012.9
20260904101511 76 72 0.0 2.0 0.00 0.00 0.00 87 1012.8
20260904100007 76 93 0.0 1.0 0.00 0.00 0.00 86 1012.7
20260904094511 76 116 0.0 2.0 0.00 0.00 0.00 85 1012.6
20260904093008 77 181 0.0 0.0 0.00 0.00 0.00 84 1012.6
20260904091504 77 133 0.0 2.0 0.00 0.00 0.00 84 1012.7
20260904090002 77 185 0.0 3.0 0.00 0.00 0.00 83 1012.7
20260904084502 77 104 0.0 3.0 0.00 0.00 0.00 83 1012.7
20260904083101 77 191 0.0 4.0 0.00 0.00 0.00 83 1012.6
20260904081600 77 167 0.0 1.0 0.00 0.00 0.00 82 1012.6
20260904080100 78 212 0.0 1.0 0.00 0.00 0.00 82 1012.6
20260904074557 78 139 0.0 3.0 0.00 0.00 0.00 81 1012.4
20260904073059 78 77 0.0 2.0 0.00 0.00 0.00 81 1012.5
20260904071559 78 165 0.0 3.0 0.00 0.00 0.00 80 1012.5
20260904070053 78 188 0.0 3.0 0.00 0.00 0.00 80 1012.6
20260904064551 79 152 0.0 2.0 0.00 0.00 0.00 79 1012.8